English version
lugares datos climáticos artículos

datos de Mairena del Aljarafe, Sevilla, España
Año Mes Dia Mostrar

  Fecha       hora        Temp.ext.    Hum.ext.  Dir.Viento   Vel.Viento  Presion al NM   T.int. Prec.hoy 

   26-03-2019    22:25      17.4º(-1.8)     51%      135(SE)      4.8 km/h    1013.9 hpa     24.5º    0.0 mm
   26-03-2019    22:20      17.7º(-1.5)     50%      112 (E)      8.0 km/h    1013.7 hpa     24.5º    0.0 mm
   26-03-2019    22:15      18.0º(-1.3)     48%      112 (E)      8.0 km/h    1013.7 hpa     24.5º    0.0 mm
   26-03-2019    22:10      18.2º(-1.2)     49%      135(SE)      3.2 km/h    1013.6 hpa     24.5º    0.0 mm
   26-03-2019    22:05      18.3º(-1.2)     49%         -         0.0 km/h    1013.4 hpa     24.5º    0.0 mm
   26-03-2019    22:00      18.4º(-1.2)     49%         -         0.0 km/h    1013.3 hpa     24.5º    0.0 mm
   26-03-2019    21:55      18.4º(-1.3)     50%         -         0.0 km/h    1013.3 hpa     24.5º    0.0 mm
   26-03-2019    21:50      18.4º(-1.3)     50%         -         0.0 km/h    1013.3 hpa     24.5º    0.0 mm
   26-03-2019    21:45      18.4º(-1.3)     50%         -         0.0 km/h    1013.3 hpa     24.5º    0.0 mm
   26-03-2019    21:40      18.5º(-1.3)     50%      180 (S)      1.6 km/h    1013.3 hpa     24.5º    0.0 mm
   26-03-2019    21:35      18.5º(-1.4)     49%      180 (S)      1.6 km/h    1013.3 hpa     24.5º    0.0 mm
   26-03-2019    21:30      18.5º(-1.5)     49%      180 (S)      1.6 km/h    1013.3 hpa     24.5º    0.0 mm
   26-03-2019    21:25      18.5º(-1.6)     49%      202 (S)      1.6 km/h    1013.2 hpa     24.5º    0.0 mm
   26-03-2019    21:20      18.5º(-1.7)     49%      225(SW)      3.2 km/h    1013.1 hpa     24.5º    0.0 mm
   26-03-2019    21:15      18.6º(-1.7)     49%      225(SW)      4.8 km/h    1013.0 hpa     24.5º    0.0 mm
   26-03-2019    21:10      18.7º(-1.7)     49%      202 (S)      4.8 km/h    1013.0 hpa     24.5º    0.0 mm
   26-03-2019    21:05      18.8º(-1.8)     49%      202 (S)      3.2 km/h    1012.9 hpa     24.5º    0.0 mm
   26-03-2019    21:00      18.9º(-1.8)     48%      202 (S)      3.2 km/h    1012.8 hpa     24.4º    0.0 mm
   26-03-2019    20:55      19.1º(-1.7)     47%      247(SW)      1.6 km/h    1012.7 hpa     24.4º    0.0 mm
   26-03-2019    20:50      19.2º(-1.7)     47%      247(SW)      3.2 km/h    1012.5 hpa     24.4º    0.0 mm
   26-03-2019    20:45      19.3º(-1.7)     47%      270 (W)      3.2 km/h    1012.5 hpa     24.4º    0.0 mm
   26-03-2019    20:40      19.5º(-1.6)     46%      270 (W)      1.6 km/h    1012.3 hpa     24.5º    0.0 mm
   26-03-2019    20:35      19.6º(-1.6)     46%      270 (W)      4.8 km/h    1012.2 hpa     24.5º    0.0 mm
   26-03-2019    20:30      19.6º(-1.7)     45%      270 (W)      4.8 km/h    1012.1 hpa     24.5º    0.0 mm
   26-03-2019    20:25      19.7º(-1.7)     45%      270 (W)      4.8 km/h    1012.0 hpa     24.5º    0.0 mm
   26-03-2019    20:20      19.7º(-1.9)     45%      270 (W)      3.2 km/h    1011.8 hpa     24.5º    0.0 mm
   26-03-2019    20:15      19.8º(-1.9)     45%      270 (W)      4.8 km/h    1011.6 hpa     24.5º    0.0 mm
   26-03-2019    20:10      19.9º(-1.9)     45%      270 (W)      4.8 km/h    1011.6 hpa     24.5º    0.0 mm
   26-03-2019    20:05      20.0º(-1.9)     44%      270 (W)      3.2 km/h    1011.5 hpa     24.5º    0.0 mm
   26-03-2019    20:00      20.1º(-1.8)     44%      270 (W)      3.2 km/h    1011.5 hpa     24.5º    0.0 mm
   26-03-2019    19:55      20.2º(-1.8)     44%      270 (W)      3.2 km/h    1011.4 hpa     24.5º    0.0 mm
   26-03-2019    19:50      20.3º(-1.8)     43%      270 (W)      4.8 km/h    1011.5 hpa     24.5º    0.0 mm
   26-03-2019    19:45      20.3º(-2.0)     43%      270 (W)      4.8 km/h    1011.4 hpa     24.4º    0.0 mm
   26-03-2019    19:40      20.6º(-1.7)     43%      270 (W)      4.8 km/h    1011.5 hpa     24.4º    0.0 mm
   26-03-2019    19:35      20.7º(-1.7)     42%      247(SW)      4.8 km/h    1011.4 hpa     24.4º    0.0 mm
   26-03-2019    19:30      20.9º(-1.7)     42%      247(SW)      3.2 km/h    1011.4 hpa     24.4º    0.0 mm
   26-03-2019    19:25      21.0º(-1.7)     41%      247(SW)      1.6 km/h    1011.5 hpa     24.4º    0.0 mm
   26-03-2019    19:20      21.1º(-1.6)     41%      225(SW)      3.2 km/h    1011.4 hpa     24.5º    0.0 mm
   26-03-2019    19:15      21.2º(-1.6)     40%      225(SW)      4.8 km/h    1011.5 hpa     24.5º    0.0 mm
   26-03-2019    19:10      21.5º(-1.4)     40%      225(SW)      6.4 km/h    1011.5 hpa     24.5º    0.0 mm
   26-03-2019    19:05      21.8º(-1.2)     39%      202 (S)      6.4 km/h    1011.5 hpa     24.5º    0.0 mm
   26-03-2019    19:00      22.3º(-0.8)     38%      202 (S)      8.0 km/h    1011.4 hpa     24.5º    0.0 mm
   26-03-2019    18:55      23.0º(-0.2)     37%      202 (S)      1.6 km/h    1011.4 hpa     24.5º    0.0 mm
   26-03-2019    18:50      23.1º(-0.2)     36%      225(SW)      1.6 km/h    1011.3 hpa     24.5º    0.0 mm
   26-03-2019    18:45      23.2º(-0.1)     36%      202 (S)      3.2 km/h    1011.3 hpa     24.5º    0.0 mm
   26-03-2019    18:40      23.3º(-0.1)     36%      225(SW)      3.2 km/h    1011.2 hpa     24.4º    0.0 mm
   26-03-2019    18:35      23.4º(+0.0)     36%      180 (S)      1.6 km/h    1011.3 hpa     24.4º    0.0 mm
   26-03-2019    18:30      23.4º(-0.0)     36%      157(SE)      1.6 km/h    1011.0 hpa     24.4º    0.0 mm
   26-03-2019    18:25      23.6º(+0.1)     35%      090 (E)      3.2 km/h    1011.0 hpa     24.5º    0.0 mm
   26-03-2019    18:20      23.9º(+0.4)     35%      090 (E)      3.2 km/h    1011.0 hpa     24.5º    0.0 mm
   26-03-2019    18:15      24.0º(+0.4)     35%      180 (S)      3.2 km/h    1010.9 hpa     24.5º    0.0 mm
   26-03-2019    18:10      24.1º(+0.6)     35%      225(SW)      4.8 km/h    1010.8 hpa     24.5º    0.0 mm
   26-03-2019    18:05      24.1º(+0.4)     35%      157(SE)      4.8 km/h    1010.8 hpa     24.5º    0.0 mm
   26-03-2019    18:00      24.2º(+0.6)     35%      202 (S)      3.2 km/h    1010.8 hpa     24.5º    0.0 mm
   26-03-2019    17:55      24.1º(+0.5)     35%      202 (S)      3.2 km/h    1010.7 hpa     24.5º    0.0 mm
   26-03-2019    17:50      24.0º(+0.2)     35%      225(SW)      4.8 km/h    1010.6 hpa     24.5º    0.0 mm
   26-03-2019    17:45      24.0º(+0.2)     35%      202 (S)      6.4 km/h    1010.6 hpa     24.5º    0.0 mm
   26-03-2019    17:40      24.0º(+0.3)     36%      180 (S)      3.2 km/h    1010.6 hpa     24.5º    0.0 mm
   26-03-2019    17:35      24.0º(+0.3)     35%      225(SW)      4.8 km/h    1010.5 hpa     24.5º    0.0 mm
   26-03-2019    17:30      24.1º(+0.4)     35%      157(SE)      4.8 km/h    1010.4 hpa     24.4º    0.0 mm
   26-03-2019    17:25      24.3º(+0.7)     35%      067(NE)      4.8 km/h    1010.5 hpa     24.4º    0.0 mm
   26-03-2019    17:20      24.4º(+0.6)     35%      067(NE)      4.8 km/h    1010.4 hpa     24.4º    0.0 mm
   26-03-2019    17:15      24.4º(+0.5)     35%      045(NE)      4.8 km/h    1010.5 hpa     24.4º    0.0 mm
   26-03-2019    17:10      24.8º(+0.9)     35%      045(NE)      6.4 km/h    1010.3 hpa     24.4º    0.0 mm
   26-03-2019    17:05      24.6º(+0.8)     35%      202 (S)      6.4 km/h    1010.3 hpa     24.4º    0.0 mm
   26-03-2019    17:00      24.4º(+0.6)     36%      180 (S)      6.4 km/h    1010.3 hpa     24.4º    0.0 mm
   26-03-2019    16:55      24.5º(+0.8)     36%      247(SW)      6.4 km/h    1010.3 hpa     24.5º    0.0 mm
   26-03-2019    16:50      24.4º(+0.3)     36%      202 (S)      6.4 km/h    1010.3 hpa     24.5º    0.0 mm
   26-03-2019    16:45      24.4º(+0.5)     36%      225(SW)      8.0 km/h    1010.3 hpa     24.5º    0.0 mm
   26-03-2019    16:40      24.4º(+0.8)     35%      202 (S)      9.7 km/h    1010.3 hpa     24.5º    0.0 mm
   26-03-2019    16:35      24.8º(+1.3)     35%      225(SW)     11.3 km/h    1010.1 hpa     24.5º    0.0 mm
   26-03-2019    16:30      25.1º(+1.8)     36%      202 (S)      9.7 km/h    1010.2 hpa     24.5º    0.0 mm
   26-03-2019    16:25      25.1º(+1.5)     37%      225(SW)     11.3 km/h    1010.0 hpa     24.5º    0.0 mm
   26-03-2019    16:20      25.2º(+1.5)     37%      225(SW)      9.7 km/h    1010.0 hpa     24.4º    0.0 mm
   26-03-2019    16:15      25.3º(+1.7)     36%      022 (N)      6.4 km/h    1010.0 hpa     24.4º    0.0 mm
   26-03-2019    16:10      25.6º(+1.9)     36%      202 (S)      8.0 km/h    1009.9 hpa     24.4º    0.0 mm
   26-03-2019    16:05      25.9º(+2.2)     35%      000 (N)      6.4 km/h    1009.9 hpa     24.4º    0.0 mm
   26-03-2019    16:00      26.1º(+2.5)     35%      202 (S)      8.0 km/h    1009.7 hpa     24.4º    0.0 mm
   26-03-2019    15:55      26.3º(+2.9)     35%      000 (N)      4.8 km/h    1009.7 hpa     24.4º    0.0 mm
   26-03-2019    15:50      26.3º(+3.0)     34%      022 (N)      3.2 km/h    1009.6 hpa     24.4º    0.0 mm
   26-03-2019    15:45      26.3º(+2.9)     35%      045(NE)      4.8 km/h    1009.7 hpa     24.4º    0.0 mm
   26-03-2019    15:40      26.5º(+3.2)     34%      202 (S)      1.6 km/h    1009.5 hpa     24.4º    0.0 mm
   26-03-2019    15:35      26.2º(+2.9)     34%      135(SE)      1.6 km/h    1009.5 hpa     24.4º    0.0 mm
   26-03-2019    15:30      25.8º(+2.6)     35%      225(SW)      1.6 km/h    1009.5 hpa     24.4º    0.0 mm
   26-03-2019    15:25      25.7º(+2.2)     35%      135(SE)      1.6 km/h    1009.5 hpa     24.4º    0.0 mm
   26-03-2019    15:20      25.8º(+2.6)     35%      090 (E)      4.8 km/h    1009.5 hpa     24.4º    0.0 mm
   26-03-2019    15:15      26.1º(+3.2)     34%      067(NE)      6.4 km/h    1009.6 hpa     24.4º    0.0 mm
   26-03-2019    15:10      26.2º(+3.1)     34%      112 (E)      4.8 km/h    1009.5 hpa     24.4º    0.0 mm
   26-03-2019    15:05      26.3º(+3.4)     34%      067(NE)      4.8 km/h    1009.6 hpa     24.4º    0.0 mm
   26-03-2019    15:00      26.1º(+2.9)     35%      225(SW)      3.2 km/h    1009.5 hpa     24.4º    0.0 mm
   26-03-2019    14:55      25.9º(+3.0)     35%      315(NW)      4.8 km/h    1009.5 hpa     24.3º    0.0 mm
   26-03-2019    14:50      25.7º(+2.9)     36%      045(NE)      6.4 km/h    1009.6 hpa     24.3º    0.0 mm
   26-03-2019    14:45      25.6º(+2.9)     35%      112 (E)      6.4 km/h    1009.8 hpa     24.3º    0.0 mm
   26-03-2019    14:40      25.3º(+2.7)     35%      112 (E)      9.7 km/h    1009.7 hpa     24.3º    0.0 mm
   26-03-2019    14:35      25.9º(+3.7)     34%      112 (E)      9.7 km/h    1009.9 hpa     24.3º    0.0 mm
   26-03-2019    14:30      25.7º(+3.0)     35%      045(NE)      6.4 km/h    1009.7 hpa     24.3º    0.0 mm
   26-03-2019    14:25      25.4º(+2.8)     35%      112 (E)     11.3 km/h    1009.8 hpa     24.3º    0.0 mm
   26-03-2019    14:20      25.5º(+2.9)     35%      112 (E)     11.3 km/h    1009.9 hpa     24.3º    0.0 mm
   26-03-2019    14:15      25.3º(+3.0)     35%      112 (E)      8.0 km/h    1009.8 hpa     24.3º    0.0 mm
   26-03-2019    14:10      25.2º(+3.0)     35%      112 (E)      9.7 km/h    1009.9 hpa     24.3º    0.0 mm
   26-03-2019    14:05      24.9º(+2.8)     35%      112 (E)     16.1 km/h    1010.0 hpa     24.3º    0.0 mm
   26-03-2019    14:00      25.1º(+3.3)     35%      112 (E)     16.1 km/h    1010.0 hpa     24.3º    0.0 mm
   26-03-2019    13:55      24.9º(+2.4)     35%      090 (E)      9.7 km/h    1009.6 hpa     24.3º    0.0 mm
   26-03-2019    13:50      24.9º(+2.5)     34%      112 (E)     19.3 km/h    1010.0 hpa     24.3º    0.0 mm
   26-03-2019    13:45      24.9º(+2.8)     34%      090 (E)      8.0 km/h    1009.9 hpa     24.3º    0.0 mm
   26-03-2019    13:40      24.7º(+2.8)     35%      090 (E)      6.4 km/h    1010.0 hpa     24.3º    0.0 mm
   26-03-2019    13:35      24.3º(+2.6)     35%      112 (E)     16.1 km/h    1010.2 hpa     24.4º    0.0 mm
   26-03-2019    13:30      24.3º(+2.4)     35%      112 (E)      9.7 km/h    1010.2 hpa     24.4º    0.0 mm
   26-03-2019    13:25      24.0º(+2.1)     36%      090 (E)     12.9 km/h    1010.2 hpa     24.4º    0.0 mm
   26-03-2019    13:20      23.5º(+1.6)     36%      090 (E)     20.9 km/h    1010.2 hpa     24.4º    0.0 mm
   26-03-2019    13:15      23.5º(+2.0)     36%      112 (E)     19.3 km/h    1010.4 hpa     24.4º    0.0 mm
   26-03-2019    13:10      23.6º(+2.2)     37%      112 (E)     17.7 km/h    1010.5 hpa     24.4º    0.0 mm
   26-03-2019    13:05      23.6º(+2.3)     36%      090 (E)     17.7 km/h    1010.5 hpa     24.4º    0.0 mm
   26-03-2019    13:00      23.4º(+2.0)     37%      090 (E)     17.7 km/h    1010.5 hpa     24.4º    0.0 mm
   26-03-2019    12:55      23.3º(+1.9)     38%      112 (E)     14.5 km/h    1010.5 hpa     24.4º    0.0 mm
   26-03-2019    12:50      23.2º(+2.0)     37%      112 (E)     14.5 km/h    1010.6 hpa     24.4º    0.0 mm
   26-03-2019    12:45      23.1º(+2.3)     37%      090 (E)     19.3 km/h    1010.7 hpa     24.4º    0.0 mm
   26-03-2019    12:40      23.0º(+2.2)     38%      112 (E)     17.7 km/h    1010.6 hpa     24.4º    0.0 mm
   26-03-2019    12:35      22.8º(+1.9)     38%      090 (E)     19.3 km/h    1010.6 hpa     24.4º    0.0 mm
   26-03-2019    12:30      22.8º(+1.7)     38%      112 (E)     16.1 km/h    1010.8 hpa     24.3º    0.0 mm
   26-03-2019    12:25      22.7º(+1.9)     38%      112 (E)     20.9 km/h    1010.9 hpa     24.3º    0.0 mm
   26-03-2019    12:20      22.6º(+1.8)     39%      112 (E)     14.5 km/h    1011.0 hpa     24.3º    0.0 mm
   26-03-2019    12:15      22.6º(+1.9)     39%      112 (E)     16.1 km/h    1011.1 hpa     24.3º    0.0 mm
   26-03-2019    12:10      22.2º(+1.9)     40%      112 (E)     22.5 km/h    1011.0 hpa     24.3º    0.0 mm
   26-03-2019    12:05      22.2º(+2.1)     39%      090 (E)     22.5 km/h    1011.1 hpa     24.3º    0.0 mm
   26-03-2019    12:00      22.2º(+2.3)     39%      112 (E)     22.5 km/h    1011.1 hpa     24.2º    0.0 mm
   26-03-2019    11:55      21.9º(+2.0)     40%      090 (E)     20.9 km/h    1011.1 hpa     24.2º    0.0 mm
   26-03-2019    11:50      21.8º(+2.1)     40%      090 (E)     25.7 km/h    1011.1 hpa     24.2º    0.0 mm
   26-03-2019    11:45      22.1º(+2.8)     40%      090 (E)     20.9 km/h    1011.1 hpa     24.2º    0.0 mm
   26-03-2019    11:40      21.8º(+2.7)     40%      090 (E)     16.1 km/h    1011.1 hpa     24.2º    0.0 mm
   26-03-2019    11:35      21.5º(+2.7)     41%      112 (E)     17.7 km/h    1011.1 hpa     24.1º    0.0 mm
   26-03-2019    11:30      21.4º(+2.6)     40%      112 (E)     20.9 km/h    1011.1 hpa     24.1º    0.0 mm
   26-03-2019    11:25      21.4º(+2.6)     41%      090 (E)     20.9 km/h    1011.1 hpa     24.1º    0.0 mm
   26-03-2019    11:20      21.3º(+2.6)     42%      090 (E)     19.3 km/h    1011.1 hpa     24.1º    0.0 mm
   26-03-2019    11:15      21.1º(+2.8)     42%      090 (E)     22.5 km/h    1011.1 hpa     24.1º    0.0 mm
   26-03-2019    11:10      21.1º(+2.9)     42%      090 (E)     24.1 km/h    1011.1 hpa     24.1º    0.0 mm
   26-03-2019    11:05      21.0º(+3.2)     42%      090 (E)     24.1 km/h    1011.1 hpa     24.1º    0.0 mm
   26-03-2019    11:00      20.9º(+3.3)     43%      090 (E)     19.3 km/h    1011.1 hpa     24.1º    0.0 mm
   26-03-2019    10:55      20.8º(+3.5)     43%      090 (E)     20.9 km/h    1011.1 hpa     24.1º    0.0 mm
   26-03-2019    10:50      20.7º(+3.6)     44%      112 (E)     17.7 km/h    1011.2 hpa     24.1º    0.0 mm
   26-03-2019    10:45      20.4º(+3.6)     45%      112 (E)     19.3 km/h    1011.1 hpa     24.1º    0.0 mm
   26-03-2019    10:40      20.1º(+3.4)     46%      112 (E)     14.5 km/h    1011.2 hpa     24.1º    0.0 mm
   26-03-2019    10:35      19.7º(+3.2)     49%      067(NE)      3.2 km/h    1011.2 hpa     24.1º    0.0 mm
   26-03-2019    10:30      19.2º(+3.1)     50%      067(NE)      8.0 km/h    1011.2 hpa     24.1º    0.0 mm
   26-03-2019    10:25      18.8º(+3.0)     52%      045(NE)      6.4 km/h    1011.1 hpa     24.1º    0.0 mm
   26-03-2019    10:20      18.4º(+3.0)     53%      022 (N)      4.8 km/h    1011.2 hpa     24.1º    0.0 mm
   26-03-2019    10:15      18.2º(+3.0)     53%      022 (N)      6.4 km/h    1011.1 hpa     24.1º    0.0 mm
   26-03-2019    10:10      17.9º(+3.1)     54%      045(NE)      6.4 km/h    1011.1 hpa     24.1º    0.0 mm
   26-03-2019    10:05      17.6º(+3.2)     55%      022 (N)      6.4 km/h    1011.1 hpa     24.1º    0.0 mm
   26-03-2019    10:00      17.3º(+3.1)     55%      045(NE)      8.0 km/h    1011.1 hpa     24.1º    0.0 mm
   26-03-2019    09:55      17.2º(+3.4)     56%      045(NE)      8.0 km/h    1011.0 hpa     24.1º    0.0 mm
   26-03-2019    09:50      17.1º(+3.5)     56%      067(NE)      6.4 km/h    1011.1 hpa     24.1º    0.0 mm
   26-03-2019    09:45      16.9º(+3.5)     57%      022 (N)      6.4 km/h    1011.0 hpa     24.1º    0.0 mm
   26-03-2019    09:40      16.7º(+3.4)     58%      045(NE)      8.0 km/h    1011.0 hpa     24.1º    0.0 mm
   26-03-2019    09:35      16.5º(+3.2)     58%      045(NE)      8.0 km/h    1011.0 hpa     24.1º    0.0 mm
   26-03-2019    09:30      16.4º(+3.1)     59%      022 (N)      8.0 km/h    1011.0 hpa     24.1º    0.0 mm
   26-03-2019    09:25      16.4º(+3.2)     60%      045(NE)      8.0 km/h    1011.0 hpa     24.2º    0.0 mm
   26-03-2019    09:20      16.3º(+3.1)     60%      045(NE)      6.4 km/h    1011.0 hpa     24.2º    0.0 mm
   26-03-2019    09:15      16.2º(+3.0)     61%      067(NE)      8.0 km/h    1011.0 hpa     24.2º    0.0 mm
   26-03-2019    09:10      16.1º(+2.9)     61%      045(NE)      8.0 km/h    1010.9 hpa     24.2º    0.0 mm
   26-03-2019    09:05      16.0º(+2.8)     62%      090 (E)      6.4 km/h    1010.9 hpa     24.3º    0.0 mm
   26-03-2019    09:00      15.8º(+2.6)     62%      045(NE)      8.0 km/h    1011.0 hpa     24.3º    0.0 mm
   26-03-2019    08:55      15.7º(+2.5)     63%      067(NE)      6.4 km/h    1011.0 hpa     24.3º    0.0 mm
   26-03-2019    08:50      15.4º(+2.3)     63%      045(NE)      6.4 km/h    1011.0 hpa     24.3º    0.0 mm
   26-03-2019    08:45      15.3º(+2.2)     64%      045(NE)      6.4 km/h    1011.0 hpa     24.3º    0.0 mm
   26-03-2019    08:40      15.1º(+1.9)     65%      045(NE)      8.0 km/h    1011.0 hpa     24.3º    0.0 mm
   26-03-2019    08:35      15.1º(+2.0)     65%      022 (N)      8.0 km/h    1011.0 hpa     24.2º    0.0 mm
   26-03-2019    08:30      14.9º(+2.0)     66%      045(NE)      4.8 km/h    1011.0 hpa     24.2º    0.0 mm
   26-03-2019    08:25      14.8º(+2.0)     66%      067(NE)      6.4 km/h    1011.0 hpa     24.2º    0.0 mm
   26-03-2019    08:20      14.7º(+2.0)     66%      045(NE)      6.4 km/h    1011.0 hpa     24.3º    0.0 mm
   26-03-2019    08:15      14.7º(+2.1)     67%      067(NE)      8.0 km/h    1011.0 hpa     24.3º    0.0 mm
   26-03-2019    08:10      14.6º(+2.1)     67%      067(NE)      8.0 km/h    1010.8 hpa     24.3º    0.0 mm
   26-03-2019    08:05      14.6º(+2.2)     67%      067(NE)      6.4 km/h    1010.7 hpa     24.3º    0.0 mm
   26-03-2019    08:00      14.6º(+2.2)     67%      045(NE)      6.4 km/h    1010.7 hpa     24.3º    0.0 mm
   26-03-2019    07:55      14.6º(----)     66%      090 (E)      8.0 km/h    1010.7 hpa     24.4º    0.0 mm
   26-03-2019    07:50      14.6º(----)     66%      045(NE)      8.0 km/h    1010.6 hpa     24.3º    0.0 mm
   26-03-2019    07:45      14.6º(----)     66%      045(NE)      6.4 km/h    1010.6 hpa     24.3º    0.0 mm
   26-03-2019    07:40      14.6º(+2.5)     66%      067(NE)      6.4 km/h    1010.6 hpa     24.3º    0.0 mm
   26-03-2019    07:35      14.5º(+2.4)     66%      045(NE)      6.4 km/h    1010.5 hpa     24.3º    0.0 mm
   26-03-2019    07:30      14.4º(+2.3)     66%      067(NE)      8.0 km/h    1010.6 hpa     24.3º    0.0 mm
   26-03-2019    07:25      14.3º(+2.2)     67%      045(NE)      6.4 km/h    1010.5 hpa     24.2º    0.0 mm
   26-03-2019    07:20      14.2º(+2.1)     67%      045(NE)      6.4 km/h    1010.5 hpa     24.2º    0.0 mm
   26-03-2019    07:15      14.1º(+2.1)     68%      045(NE)      6.4 km/h    1010.6 hpa     24.2º    0.0 mm
   26-03-2019    07:10      14.1º(+2.2)     68%      045(NE)      6.4 km/h    1010.7 hpa     24.1º    0.0 mm
   26-03-2019    07:05      14.1º(+2.3)     68%      022 (N)      6.4 km/h    1010.7 hpa     24.1º    0.0 mm
   26-03-2019    07:00      14.1º(+2.3)     68%      045(NE)      6.4 km/h    1010.6 hpa     24.1º    0.0 mm
   26-03-2019    06:55      14.1º(+2.3)     68%      045(NE)      6.4 km/h    1010.6 hpa     24.0º    0.0 mm
   26-03-2019    06:50      14.2º(+2.4)     68%      022 (N)      6.4 km/h    1010.6 hpa     24.0º    0.0 mm
   26-03-2019    06:45      14.2º(+2.3)     67%      045(NE)      8.0 km/h    1010.6 hpa     24.0º    0.0 mm
   26-03-2019    06:40      14.2º(+2.3)     67%      045(NE)      8.0 km/h    1010.5 hpa     23.9º    0.0 mm
   26-03-2019    06:35      14.2º(+2.2)     67%      045(NE)      6.4 km/h    1010.6 hpa     23.9º    0.0 mm
   26-03-2019    06:30      14.2º(+2.1)     67%      022 (N)      6.4 km/h    1010.6 hpa     23.8º    0.0 mm
   26-03-2019    06:25      14.3º(+2.2)     67%      045(NE)      6.4 km/h    1010.5 hpa     23.8º    0.0 mm
   26-03-2019    06:20      14.3º(+2.1)     67%      067(NE)      6.4 km/h    1010.5 hpa     23.7º    0.0 mm
   26-03-2019    06:15      14.3º(+2.1)     66%      067(NE)      8.0 km/h    1010.5 hpa     23.7º    0.0 mm
   26-03-2019    06:10      14.4º(+2.1)     66%      045(NE)      6.4 km/h    1010.5 hpa     23.8º    0.0 mm
   26-03-2019    06:05      14.5º(+2.2)     65%      067(NE)      8.0 km/h    1010.6 hpa     23.8º    0.0 mm
   26-03-2019    06:00      14.6º(+2.2)     65%      045(NE)      6.4 km/h    1010.6 hpa     23.8º    0.0 mm
   26-03-2019    05:55      14.7º(+2.3)     65%      067(NE)      6.4 km/h    1010.6 hpa     23.8º    0.0 mm
   26-03-2019    05:50      14.8º(+2.3)     64%      045(NE)      6.4 km/h    1010.5 hpa     23.8º    0.0 mm
   26-03-2019    05:45      14.8º(+2.2)     64%      045(NE)      4.8 km/h    1010.6 hpa     23.8º    0.0 mm
   26-03-2019    05:40      14.9º(+2.2)     63%      045(NE)      4.8 km/h    1010.7 hpa     23.8º    0.0 mm
   26-03-2019    05:35      15.1º(+2.3)     62%      045(NE)      6.4 km/h    1010.6 hpa     23.8º    0.0 mm
   26-03-2019    05:30      15.2º(+2.4)     62%      045(NE)      6.4 km/h    1010.4 hpa     23.8º    0.0 mm
   26-03-2019    05:25      15.2º(+2.4)     62%      022 (N)      6.4 km/h    1010.3 hpa     23.8º    0.0 mm
   26-03-2019    05:20      15.3º(+2.5)     61%      022 (N)      8.0 km/h    1010.2 hpa     23.8º    0.0 mm
   26-03-2019    05:15      15.6º(+2.8)     60%      045(NE)      8.0 km/h    1010.2 hpa     23.8º    0.0 mm
   26-03-2019    05:10      15.7º(+2.9)     59%      045(NE)      8.0 km/h    1010.3 hpa     23.8º    0.0 mm
   26-03-2019    05:05      15.8º(+2.9)     59%      045(NE)      8.0 km/h    1010.3 hpa     23.8º    0.0 mm
   26-03-2019    05:00      15.9º(+2.9)     59%      045(NE)      6.4 km/h    1010.5 hpa     23.8º    0.0 mm
   26-03-2019    04:55      15.9º(+2.8)     59%      045(NE)      8.0 km/h    1010.6 hpa     23.8º    0.0 mm
   26-03-2019    04:50      16.0º(+2.8)     59%      067(NE)      6.4 km/h    1010.7 hpa     23.8º    0.0 mm
   26-03-2019    04:45      16.1º(+2.9)     59%      045(NE)      6.4 km/h    1010.7 hpa     23.8º    0.0 mm
   26-03-2019    04:40      16.1º(+2.9)     60%      090 (E)      6.4 km/h    1010.9 hpa     23.9º    0.0 mm
   26-03-2019    04:35      16.2º(+3.0)     60%      067(NE)      6.4 km/h    1010.9 hpa     23.9º    0.0 mm
   26-03-2019    04:30      16.2º(+3.0)     60%      067(NE)      6.4 km/h    1010.8 hpa     23.9º    0.0 mm
   26-03-2019    04:25      16.2º(+2.9)     60%      112 (E)     12.9 km/h    1010.9 hpa     23.9º    0.0 mm
   26-03-2019    04:20      16.2º(+2.8)     60%      090 (E)      9.7 km/h    1010.9 hpa     23.9º    0.0 mm
   26-03-2019    04:15      16.2º(+2.8)     60%      067(NE)      9.7 km/h    1011.0 hpa     23.9º    0.0 mm
   26-03-2019    04:10      16.2º(+2.7)     61%      112 (E)     14.5 km/h    1011.0 hpa     23.9º    0.0 mm
   26-03-2019    04:05      16.1º(+2.5)     62%      090 (E)     14.5 km/h    1011.1 hpa     23.9º    0.0 mm
   26-03-2019    04:00      16.0º(+2.3)     62%      090 (E)     12.9 km/h    1010.9 hpa     23.9º    0.0 mm
   26-03-2019    03:55      15.9º(+2.2)     62%      090 (E)     11.3 km/h    1011.0 hpa     23.9º    0.0 mm
   26-03-2019    03:50      15.8º(+2.0)     63%      090 (E)      9.7 km/h    1010.9 hpa     23.9º    0.0 mm
   26-03-2019    03:45      15.8º(+1.9)     63%      090 (E)      8.0 km/h    1011.0 hpa     24.0º    0.0 mm
   26-03-2019    03:40      15.7º(+1.8)     63%      067(NE)      8.0 km/h    1011.0 hpa     24.0º    0.0 mm
   26-03-2019    03:35      15.7º(+1.7)     63%      067(NE)      6.4 km/h    1011.0 hpa     24.0º    0.0 mm
   26-03-2019    03:30      15.6º(+1.5)     63%      067(NE)      4.8 km/h    1011.2 hpa     24.0º    0.0 mm
   26-03-2019    03:25      15.6º(+1.5)     63%      067(NE)      8.0 km/h    1011.2 hpa     24.0º    0.0 mm
   26-03-2019    03:20      15.5º(+1.3)     63%      067(NE)      8.0 km/h    1011.3 hpa     24.0º    0.0 mm
   26-03-2019    03:15      15.4º(+1.1)     63%      090 (E)      6.4 km/h    1011.3 hpa     24.0º    0.0 mm
   26-03-2019    03:10      15.4º(+1.1)     63%      067(NE)      6.4 km/h    1011.3 hpa     24.0º    0.0 mm
   26-03-2019    03:05      15.4º(+1.1)     63%      045(NE)      4.8 km/h    1011.4 hpa     24.0º    0.0 mm
   26-03-2019    03:00      15.3º(+1.0)     63%      022 (N)      4.8 km/h    1011.5 hpa     24.0º    0.0 mm
   26-03-2019    02:55      15.3º(+1.1)     62%      067(NE)      4.8 km/h    1011.4 hpa     24.0º    0.0 mm
   26-03-2019    02:50      15.3º(+1.2)     62%      045(NE)      6.4 km/h    1011.5 hpa     24.0º    0.0 mm
   26-03-2019    02:45      15.3º(+1.2)     62%      067(NE)      4.8 km/h    1011.6 hpa     24.0º    0.0 mm
   26-03-2019    02:40      15.3º(+1.1)     62%      045(NE)      6.4 km/h    1011.6 hpa     24.0º    0.0 mm
   26-03-2019    02:35      15.3º(+1.1)     62%      022 (N)      6.4 km/h    1011.6 hpa     24.0º    0.0 mm
   26-03-2019    02:30      15.3º(+1.0)     62%      045(NE)      6.4 km/h    1011.6 hpa     24.0º    0.0 mm
   26-03-2019    02:25      15.4º(+1.0)     62%      067(NE)      6.4 km/h    1011.7 hpa     24.0º    0.0 mm
   26-03-2019    02:20      15.4º(+0.9)     61%      022 (N)      8.0 km/h    1011.7 hpa     24.0º    0.0 mm
   26-03-2019    02:15      15.5º(+0.9)     61%      045(NE)      6.4 km/h    1011.8 hpa     24.0º    0.0 mm
   26-03-2019    02:10      15.6º(+1.0)     61%      045(NE)      4.8 km/h    1011.9 hpa     24.0º    0.0 mm
   26-03-2019    02:05      15.6º(+0.9)     60%      045(NE)      6.4 km/h    1011.9 hpa     24.0º    0.0 mm
   26-03-2019    02:00      15.7º(+0.9)     60%      045(NE)      6.4 km/h    1012.0 hpa     24.1º    0.0 mm
   26-03-2019    01:55      15.7º(+0.8)     60%      045(NE)      6.4 km/h    1012.1 hpa     24.1º    0.0 mm
   26-03-2019    01:50      15.7º(+0.7)     59%      045(NE)      6.4 km/h    1012.1 hpa     24.1º    0.0 mm
   26-03-2019    01:45      15.8º(+0.7)     59%      067(NE)      6.4 km/h    1012.2 hpa     24.1º    0.0 mm
   26-03-2019    01:40      15.8º(+0.7)     58%      045(NE)      4.8 km/h    1012.2 hpa     24.1º    0.0 mm
   26-03-2019    01:35      15.9º(+0.7)     58%      067(NE)      4.8 km/h    1012.3 hpa     24.1º    0.0 mm
   26-03-2019    01:30      15.9º(+0.6)     58%      022 (N)      4.8 km/h    1012.3 hpa     24.1º    0.0 mm
   26-03-2019    01:25      16.1º(+0.7)     57%      045(NE)      4.8 km/h    1012.4 hpa     24.1º    0.0 mm
   26-03-2019    01:20      16.1º(+0.7)     57%      067(NE)      6.4 km/h    1012.2 hpa     24.1º    0.0 mm
   26-03-2019    01:15      16.2º(+0.7)     56%      045(NE)      4.8 km/h    1012.4 hpa     24.1º    0.0 mm
   26-03-2019    01:10      16.2º(+0.6)     56%      022 (N)      6.4 km/h    1012.4 hpa     24.1º    0.0 mm
   26-03-2019    01:05      16.3º(+0.6)     56%      022 (N)      6.4 km/h    1012.5 hpa     24.1º    0.0 mm
   26-03-2019    01:00      16.3º(+0.6)     56%      045(NE)      6.4 km/h    1012.5 hpa     24.1º    0.0 mm
   26-03-2019    00:55      16.3º(----)     56%      045(NE)      6.4 km/h    1012.5 hpa     24.1º    0.0 mm
   26-03-2019    00:50      16.4º(----)     56%      045(NE)      4.8 km/h    1012.6 hpa     24.1º    0.0 mm
   26-03-2019    00:45      16.4º(----)     56%      022 (N)      4.8 km/h    1012.7 hpa     24.1º    0.0 mm
   26-03-2019    00:40      16.4º(----)     55%      022 (N)      4.8 km/h    1012.7 hpa     24.1º    0.0 mm
   26-03-2019    00:35      16.5º(----)     55%      022 (N)      4.8 km/h    1012.7 hpa     24.1º    0.0 mm
   26-03-2019    00:30      16.6º(----)     55%      022 (N)      4.8 km/h    1012.8 hpa     24.1º    0.0 mm
   26-03-2019    00:25      16.6º(----)     55%      022 (N)      4.8 km/h    1012.7 hpa     24.1º    0.0 mm
   26-03-2019    00:20      16.7º(----)     55%      045(NE)      4.8 km/h    1012.8 hpa     24.1º    0.0 mm
   26-03-2019    00:15      16.8º(----)     55%      022 (N)      4.8 km/h    1012.7 hpa     24.1º    0.0 mm
   26-03-2019    00:10      16.9º(----)     54%      022 (N)      4.8 km/h    1012.8 hpa     24.1º    0.0 mm
   26-03-2019    00:05      17.0º(----)     54%      022 (N)      3.2 km/h    1012.7 hpa     24.1º    0.0 mm
   26-03-2019    00:00      17.2º(----)     54%      000 (N)      3.2 km/h    1012.7 hpa     24.1º    0.0 mm